This demonstration page uses our WeatherBlox Daily Observations layout. Learn more.

Left ArrowRight Arrow

38.80484, -77.04692

Hourly Observations for September 10, 2020

Temp ( °F °C ) Dew Point ( °F °C ) Humidity (%) Winds ( mph kmh ) Pressure ( in mb ) Visibility ( mi km ) Precip ( " mm )
12:33 am 00:33 Cloudy 76 24.4 74 23.3 94 94 NE 9 15 30.25 1024 10 16 N/A
12:52 am 00:52 Cloudy 76 24.4 74 23.3 94 94 NE 8 13 30.24 1024 10 16 N/A
1:04 am 01:04 Cloudy 76 24.4 74 23.3 94 94 NE 8 13 30.24 1024 10 16 N/A
1:14 am 01:14 Cloudy 76 24.4 74 23.3 94 94 NE 7 11 30.25 1024 10 16 N/A
1:52 am 01:52 Cloudy 76 24.4 74 23.3 94 94 ENE 8 13 30.23 1024 10 16 0.00 0.00
2:09 am 02:09 Cloudy 76 24.4 74 23.3 94 94 NE 8 13 30.23 1024 10 16 N/A
2:52 am 02:52 Cloudy 76 24.4 74 23.3 94 94 NE 8 13 30.22 1023 10 16 N/A
3:52 am 03:52 Cloudy 76 24.4 74 23.3 94 94 NE 9 15 30.20 1023 10 16 N/A
4:52 am 04:52 Cloudy 76 24.4 74 23.3 94 94 NE 8 13 30.21 1023 10 16 N/A
5:52 am 05:52 Cloudy 76 24.4 74 23.3 94 94 ENE 7 11 30.22 1023 9 14 N/A
6:52 am 06:52 Cloudy 76 24.4 74 23.3 94 94 ENE 8 13 30.21 1023 7 11 0.00 0.00
7:20 am 07:20 Cloudy with Drizzle 76 24.4 74 23.3 94 94 NE 8 13 30.21 1023 3 5 0.00 0.00
7:39 am 07:39 Cloudy with Drizzle 76 24.4 74 23.3 94 94 NE 9 15 30.22 1023 3 4 0.00 0.00
7:52 am 07:52 Cloudy with Drizzle 76 24.4 74 23.3 94 94 NE 9 15 30.22 1023 3 5 0.00 0.00
8:09 am 08:09 Cloudy with Drizzle 76 24.4 74 23.3 94 94 NE 8 13 30.21 1023 6 10 0.00 0.00
8:30 am 08:30 Cloudy 77 25 75 23.9 94 94 NE 6 9 30.21 1023 10 16 0.00 0.00
8:52 am 08:52 Cloudy 77 25 74 23.3 90 90 NE 8 13 30.21 1023 10 16 0.00 0.00
9:03 am 09:03 Cloudy with Drizzle 77 25 74 23.3 90 90 NE 8 13 30.21 1023 6 10 0.00 0.00
9:36 am 09:36 Cloudy with Drizzle 77 25 75 23.9 94 94 ENE 7 11 30.21 1023 4 6 0.00 0.00
9:46 am 09:46 Cloudy with Drizzle 79 26 75 24 89 89 NE 6 9 30.21 1023 3 4 0.01 0.25
9:52 am 09:52 Cloudy with Drizzle 78 25.6 76 24.4 93 93 NE 5 7 30.21 1023 3 4 0.01 0.25
9:56 am 09:56 Cloudy with Drizzle 78 25.6 76 24.4 93 93 NE 5 7 30.21 1023 6 10 0.00 0.00
10:35 am 10:35 Cloudy with Drizzle 78 25.6 75 23.9 90 90 E 6 9 30.21 1023 6 10 0.00 0.00
10:43 am 10:43 Cloudy with Drizzle 78 25.6 75 23.9 90 90 E 7 11 30.21 1023 2 3 0.00 0.00
10:52 am 10:52 Cloudy with Drizzle 78 25.6 76 24.4 93 93 E 3 6 30.21 1023 2 3 0.00 0.00
11:01 am 11:01 Cloudy with Light Rain 78 25.6 75 23.9 90 90 ENE 3 6 30.21 1023 4 6 0.01 0.25
11:11 am 11:11 Cloudy with Light Rain 78 25.6 76 24.4 93 93 NE 3 6 30.21 1023 6 10 0.01 0.25
11:17 am 11:17 Cloudy with Light Rain 78 25.6 75 23.9 90 90 N N/A 30.20 1023 4 6 0.01 0.25
11:26 am 11:26 Cloudy with Light Rain 78 25.6 75 23.9 90 90 N N/A 30.20 1023 2 3 0.01 0.25
11:31 am 11:31 Cloudy with Rain 78 25.6 75 23.9 90 90 N 3 6 30.20 1023 1 2 0.03 0.76
11:52 am 11:52 Cloudy with Light Rain 78 25.6 76 24.4 93 93 E 5 7 30.19 1022 2 3 0.24 6.10
11:56 am 11:56 Cloudy with Light Rain 78 25.6 76 24.4 93 93 E 7 11 30.19 1022 4 6 0.00 0.00
12:20 pm 12:20 Cloudy with Light Rain 78 25.6 76 24.4 93 93 SW 3 6 30.18 1022 5 8 0.00 0.00
12:36 pm 12:36 Cloudy with Light Rain 79 26.1 76 24.4 90 90 N N/A 30.17 1022 3 4 0.01 0.25
12:38 pm 12:38 Cloudy with Light Rain 79 26.1 76 24.4 90 90 VRB 3 6 30.17 1022 2 3 0.01 0.25
12:52 pm 12:52 Cloudy with Nearby Thunderstorms 79 26.1 76 24.4 90 90 WNW 3 6 30.17 1022 1 2 0.08 2.03
1:00 pm 13:00 Cloudy with Nearby Thunderstorms 79 26.1 76 24.4 90 90 NNW 6 9 30.17 1022 1 2 0.08 2.03
1:15 pm 13:15 Cloudy with Heavy Rain 78 25.6 76 24.4 93 93 NNW 7 11 30.17 1022 1 1 0.24 6.10
1:30 pm 13:30 Cloudy with Heavy Rain 78 25.6 76 24.4 93 93 VRB 5 7 30.17 1022 1 1 0.47 11.94
1:52 pm 13:52 Cloudy with Heavy Rain 77 25 76 24.4 96 96 N N/A 30.18 1022 0 0 1.35 34.29
1:56 pm 13:56 Cloudy with Heavy Rain 77 25 76 24.4 96 96 W 8 13 30.17 1022 0 0 0.30 7.62
1:59 pm 13:59 Mostly Cloudy with Heavy Rain 77 25 76 24.4 96 96 W 10 17 30.17 1022 0 0 0.49 12.45
2:08 pm 14:08 Mostly Cloudy with Nearby Thunderstorms 77 25 76 24.4 96 96 W 8 13 30.17 1022 1 1 0.87 22.10
2:15 pm 14:15 Cloudy with Nearby Thunderstorms 77 25 75 23.9 94 94 NW 7 11 30.16 1021 1 2 1.04 26.42
2:27 pm 14:27 Cloudy with Nearby Thunderstorms 76 24.4 75 23.9 97 97 NNW 8 13 30.16 1021 2 3 1.15 29.21
2:30 pm 14:30 Cloudy with Nearby Thunderstorms 76 24.4 75 23.9 97 97 NNW 6 9 30.16 1021 3 5 1.16 29.46
2:34 pm 14:34 Cloudy with Light Rain 77 25 76 24.4 96 96 N 8 13 30.17 1022 3 5 1.17 29.72
2:52 pm 14:52 Cloudy with Nearby Thunderstorms 77 25 75 23.9 94 94 N 9 15 30.15 1021 6 10 1.19 30.23
3:06 pm 15:06 Cloudy with Light Rain 77 25 75 23.9 94 94 N 9 15 30.15 1021 10 16 0.01 0.25
3:52 pm 15:52 Cloudy with Light Rain 79 26.1 76 24.4 90 90 ENE 7 11 30.14 1021 10 16 0.01 0.25
4:52 pm 16:52 Cloudy with Light Rain 79 26.1 75 23.9 88 88 ENE 5 7 30.14 1021 10 16 0.00 0.00
5:04 pm 17:04 Cloudy with Light Rain 79 26.1 75 23.9 88 88 N 5 7 30.14 1021 10 16 0.00 0.00
5:36 pm 17:36 Mostly Cloudy 80 26.7 76 24.4 87 87 N 6 9 30.13 1020 10 16 0.00 0.00
5:52 pm 17:52 Mostly Cloudy 80 26.7 76 24.4 87 87 NNW 8 13 30.13 1020 10 16 0.00 0.00
6:48 pm 18:48 Mostly Cloudy 81 27 75 24 84 84 N 6 9 30.12 1020 10 16 N/A
6:52 pm 18:52 Mostly Cloudy 80 26.7 75 23.9 85 85 N 5 7 30.11 1020 10 16 N/A
7:52 pm 19:52 Mostly Cloudy 78 25.6 76 24.4 93 93 NE 6 9 30.12 1020 10 16 0.00 0.00
8:52 pm 20:52 Mostly Cloudy 78 25.6 75 23.9 90 90 N 3 6 30.12 1020 10 16 N/A
9:20 pm 21:20 Mostly Cloudy 78 25.6 75 23.9 90 90 NE 7 11 30.13 1020 10 16 N/A
9:33 pm 21:33 Mostly Cloudy 78 25.6 76 24.4 93 93 NE 3 6 30.14 1021 10 16 N/A
9:52 pm 21:52 Mostly Cloudy 78 25.6 76 24.4 93 93 NNE 3 6 30.13 1020 10 16 N/A
10:04 pm 22:04 Cloudy 78 25.6 75 23.9 90 90 NNE 6 9 30.13 1020 10 16 N/A
10:38 pm 22:38 Cloudy 78 25.6 76 24.4 93 93 NNW 6 9 30.13 1020 10 16 N/A
10:52 pm 22:52 Cloudy 78 25.6 75 23.9 90 90 NNW 5 7 30.12 1020 10 16 N/A
11:52 pm 23:52 Mostly Cloudy 77 25 75 23.9 94 94 NNW 5 7 30.12 1020 10 16 N/A

Powered by AerisWeather